User: anonymous   Login
Location: Olsztyn
(53.7767°N, 20.4765°E)
Time: 15:58:41
(UTC+02:00)
Language:

deb Explorer IX - Orbit

View from above orbital plane
View from above orbital plane
View from above satellite
View from above satellite

Ground track
Ground track

The orbit data is extracted from the following two-line orbital elements,

1 00085U 61004C   24195.42652585  .00017951  00000-0  23286-2 0  9998
2 00085  38.7374 224.2963 0260723 142.0597 219.8844 14.59281477144220
Epoch (UTC): 13 July 2024 10:14:11
Eccentricity: 0.0260723
inclination: 38.7374°
perigee height: 511 km
apogee height: 880 km
right ascension of ascending node: 224.2963°
argument of perigee: 142.0597°
revolutions per day: 14.59281477
mean anomaly at epoch: 219.8844°
orbit number at epoch: 14422

The dashed part of the orbit path shows where the satellite is in the earth's shadow,  

DLR